TimeMDT,TemperatureF,Dew PointF,Humidity,Sea Level PressureIn,VisibilityMPH,Wind Direction,Wind SpeedMPH,Gust SpeedMPH,PrecipitationIn,Events,Conditions,WindDirDegrees,DateUTC
12:53 AM,32.0,26.1,79,29.98,5.0,ENE,5.8,-,0.00,Snow,Light Snow,60,2014-03-28 06:53:00
1:31 AM,30.9,27.0,85,29.91,1.8,SSE,13.8,-,0.00,Snow,Light Snow,150,2014-03-28 07:31:00
1:39 AM,30.9,28.0,89,29.92,3.0,South,9.2,-,0.00,Snow,Light Snow,180,2014-03-28 07:39:00
1:53 AM,30.9,28.0,89,29.92,5.0,SSE,16.1,-,0.00,Rain,Light Freezing Rain,160,2014-03-28 07:53:00
2:19 AM,30.9,28.0,89,29.86,7.0,South,17.3,-,0.01,,Unknown,170,2014-03-28 08:19:00
2:53 AM,30.9,27.0,85,29.93,8.0,North,4.6,-,0.01,,Unknown,360,2014-03-28 08:53:00
3:53 AM,32.0,28.0,85,29.86,7.0,South,18.4,29.9,N/A,,Unknown,180,2014-03-28 09:53:00
4:13 AM,33.1,28.9,85,29.88,8.0,SSW,18.4,29.9,N/A,,Unknown,210,2014-03-28 10:13:00
4:53 AM,34.0,28.9,82,29.88,10.0,South,19.6,-,N/A,,Unknown,190,2014-03-28 10:53:00
5:53 AM,35.1,30.0,82,29.92,10.0,SW,5.8,-,N/A,,Unknown,220,2014-03-28 11:53:00
7:53 AM,36.0,32.0,86,29.98,10.0,WSW,9.2,-,N/A,,Clear,240,2014-03-28 13:53:00
8:53 AM,44.1,33.1,65,29.98,10.0,West,15.0,20.7,N/A,,Clear,270,2014-03-28 14:53:00
9:53 AM,51.1,26.1,38,29.99,10.0,WNW,20.7,28.8,N/A,,Clear,290,2014-03-28 15:53:00
10:53 AM,53.1,23.0,31,30.01,10.0,WNW,18.4,26.5,N/A,,Clear,300,2014-03-28 16:53:00
11:53 AM,55.0,21.9,28,30.01,10.0,NW,25.3,29.9,N/A,,Clear,310,2014-03-28 17:53:00
12:53 PM,55.9,25.0,30,30.01,10.0,NNW,20.7,26.5,N/A,,Partly Cloudy,330,2014-03-28 18:53:00
1:53 PM,57.9,21.9,25,30.00,10.0,NW,24.2,32.2,N/A,,Mostly Cloudy,320,2014-03-28 19:53:00
2:53 PM,59.0,19.9,22,30.00,10.0,NNW,28.8,33.4,N/A,,Mostly Cloudy,330,2014-03-28 20:53:00
3:53 PM,57.0,18.0,22,30.02,10.0,NNW,23.0,31.1,N/A,,Partly Cloudy,330,2014-03-28 21:53:00
4:53 PM,55.9,19.0,24,30.04,10.0,NNW,20.7,25.3,N/A,,Partly Cloudy,330,2014-03-28 22:53:00
5:53 PM,53.1,21.9,30,30.09,10.0,North,18.4,-,N/A,,Partly Cloudy,360,2014-03-28 23:53:00
6:53 PM,48.9,21.0,33,30.13,10.0,NNE,18.4,-,N/A,,Clear,20,2014-03-29 00:53:00
7:53 PM,41.0,23.0,49,30.18,10.0,NNE,8.1,-,N/A,,Clear,20,2014-03-29 01:53:00
8:53 PM,36.0,24.1,62,30.21,10.0,NE,10.4,-,N/A,,Clear,50,2014-03-29 02:53:00
9:53 PM,32.0,23.0,69,30.23,10.0,North,-9999.0,-,N/A,,Clear,0,2014-03-29 03:53:00
10:53 PM,30.0,23.0,75,30.25,10.0,ESE,3.5,-,N/A,,Clear,120,2014-03-29 04:53:00
11:53 PM,28.0,21.0,75,30.25,10.0,Calm,Calm,-,N/A,,Unknown,0,2014-03-29 05:53:00